TimeCDT,TemperatureF,Dew PointF,Humidity,Sea Level PressureIn,VisibilityMPH,Wind Direction,Wind SpeedMPH,Gust SpeedMPH,PrecipitationIn,Events,Conditions,WindDirDegrees,DateUTC
12:15 AM,52.5,48.0,85,30.04,10.0,Calm,Calm,-,N/A,,Clear,0,2013-09-21 05:15:00
12:35 AM,51.6,48.4,89,30.04,10.0,Calm,Calm,-,N/A,,Clear,0,2013-09-21 05:35:00
12:55 AM,50.9,48.2,90,30.04,10.0,Calm,Calm,-,N/A,,Clear,0,2013-09-21 05:55:00
1:15 AM,50.4,47.5,90,30.04,10.0,Calm,Calm,-,N/A,,Clear,0,2013-09-21 06:15:00
1:35 AM,50.0,47.3,90,30.03,10.0,Calm,Calm,-,N/A,,Clear,0,2013-09-21 06:35:00
1:55 AM,49.3,46.8,91,30.03,10.0,Calm,Calm,-,N/A,,Clear,0,2013-09-21 06:55:00
2:15 AM,49.1,46.8,92,30.03,10.0,East,4.6,-,N/A,,Clear,90,2013-09-21 07:15:00
2:35 AM,48.7,46.6,92,30.03,10.0,East,4.6,-,N/A,,Clear,90,2013-09-21 07:35:00
2:55 AM,48.2,46.0,92,30.02,10.0,East,3.5,-,N/A,,Clear,100,2013-09-21 07:55:00
3:15 AM,47.3,45.1,92,30.02,10.0,East,3.5,-,N/A,,Clear,100,2013-09-21 08:15:00
3:35 AM,47.1,45.0,92,30.01,10.0,ESE,3.5,-,N/A,,Clear,110,2013-09-21 08:35:00
3:55 AM,47.5,45.3,92,30.00,10.0,ESE,4.6,-,N/A,,Clear,110,2013-09-21 08:55:00
4:15 AM,48.2,46.0,92,30.00,10.0,ESE,3.5,-,N/A,,Clear,110,2013-09-21 09:15:00
4:35 AM,48.0,45.7,92,29.99,10.0,ESE,3.5,-,N/A,,Clear,110,2013-09-21 09:35:00
4:55 AM,47.7,45.5,92,29.99,10.0,East,4.6,-,N/A,,Clear,100,2013-09-21 09:55:00
5:15 AM,47.3,45.1,92,29.99,10.0,ESE,4.6,-,N/A,,Clear,110,2013-09-21 10:15:00
5:35 AM,46.4,44.8,94,29.99,10.0,East,3.5,-,N/A,,Clear,100,2013-09-21 10:35:00
5:55 AM,46.0,44.6,95,29.99,10.0,East,4.6,-,N/A,,Clear,90,2013-09-21 10:55:00
6:15 AM,45.5,44.1,95,29.99,10.0,East,3.5,-,N/A,,Clear,100,2013-09-21 11:15:00
6:35 AM,45.9,44.4,95,29.98,10.0,East,4.6,-,N/A,,Clear,90,2013-09-21 11:35:00
6:55 AM,45.9,44.4,95,29.98,10.0,Calm,Calm,-,N/A,,Clear,0,2013-09-21 11:55:00
7:15 AM,46.4,44.6,93,29.99,10.0,Calm,Calm,-,N/A,,Clear,0,2013-09-21 12:15:00
7:35 AM,46.4,44.6,93,29.99,10.0,Calm,Calm,-,N/A,,Clear,0,2013-09-21 12:35:00
7:55 AM,46.8,45.0,93,29.99,10.0,Calm,Calm,-,N/A,,Clear,0,2013-09-21 12:55:00
8:15 AM,48.7,47.1,94,29.99,10.0,Calm,Calm,-,N/A,,Clear,0,2013-09-21 13:15:00
8:35 AM,51.3,48.6,90,29.99,10.0,Calm,Calm,-,N/A,,Clear,0,2013-09-21 13:35:00
8:55 AM,55.0,49.8,83,29.99,10.0,Calm,Calm,-,N/A,,Clear,0,2013-09-21 13:55:00
9:15 AM,57.2,50.4,78,29.99,10.0,Calm,Calm,-,N/A,,Clear,0,2013-09-21 14:15:00
9:35 AM,59.9,50.9,72,29.99,10.0,Calm,Calm,-,N/A,,Clear,0,2013-09-21 14:35:00
9:55 AM,62.1,51.8,69,29.99,10.0,Calm,Calm,-,N/A,,Clear,0,2013-09-21 14:55:00
10:15 AM,66.0,52.7,62,29.98,10.0,SW,6.9,-,N/A,,Clear,220,2013-09-21 15:15:00
10:35 AM,67.6,53.8,61,29.98,10.0,SW,3.5,-,N/A,,Clear,220,2013-09-21 15:35:00
10:55 AM,71.1,53.6,54,29.98,10.0,SW,5.8,-,N/A,,Clear,220,2013-09-21 15:55:00
11:15 AM,73.4,54.0,50,29.97,10.0,South,5.8,-,N/A,,Clear,190,2013-09-21 16:15:00
11:35 AM,76.1,51.8,43,29.97,10.0,SW,12.7,-,N/A,,Clear,220,2013-09-21 16:35:00
11:55 AM,77.9,48.6,36,29.97,10.0,SW,13.8,20.7,N/A,,Clear,220,2013-09-21 16:55:00
12:15 PM,78.3,47.1,33,29.96,10.0,SW,13.8,-,N/A,,Clear,220,2013-09-21 17:15:00
12:35 PM,79.5,45.9,30,29.96,10.0,SSW,13.8,21.9,N/A,,Clear,210,2013-09-21 17:35:00
12:55 PM,80.2,44.4,28,29.95,10.0,SW,15.0,19.6,N/A,,Clear,220,2013-09-21 17:55:00
1:15 PM,80.2,45.0,29,29.93,10.0,South,15.0,-,N/A,,Clear,190,2013-09-21 18:15:00
1:35 PM,81.0,45.0,28,29.92,10.0,SSW,15.0,18.4,N/A,,Clear,200,2013-09-21 18:35:00
1:55 PM,82.0,44.2,26,29.91,10.0,SSW,16.1,19.6,N/A,,Clear,200,2013-09-21 18:55:00
2:15 PM,82.2,44.4,26,29.90,10.0,SSW,16.1,20.7,N/A,,Clear,210,2013-09-21 19:15:00
2:35 PM,83.1,46.2,27,29.89,10.0,SSW,12.7,23.0,N/A,,Clear,210,2013-09-21 19:35:00
2:55 PM,83.3,47.1,28,29.88,10.0,South,15.0,21.9,N/A,,Clear,190,2013-09-21 19:55:00
3:15 PM,84.2,48.7,29,29.87,10.0,SSW,16.1,24.2,N/A,,Clear,200,2013-09-21 20:15:00
3:35 PM,84.0,48.2,29,29.86,10.0,South,18.4,-,N/A,,Clear,180,2013-09-21 20:35:00
3:55 PM,84.2,49.8,30,29.85,10.0,South,13.8,26.5,N/A,,Clear,190,2013-09-21 20:55:00
4:15 PM,84.4,50.4,31,29.85,10.0,SSW,18.4,23.0,N/A,,Clear,200,2013-09-21 21:15:00
4:35 PM,84.2,50.7,31,29.84,10.0,South,17.3,23.0,N/A,,Clear,190,2013-09-21 21:35:00
4:55 PM,84.2,50.2,31,29.83,10.0,SSW,16.1,-,N/A,,Clear,200,2013-09-21 21:55:00
5:15 PM,84.2,50.5,31,29.83,10.0,SSW,17.3,-,N/A,,Clear,200,2013-09-21 22:15:00
5:35 PM,83.8,51.4,33,29.83,10.0,South,17.3,25.3,N/A,,Clear,190,2013-09-21 22:35:00
5:55 PM,83.3,51.1,33,29.82,10.0,South,11.5,18.4,N/A,,Clear,190,2013-09-21 22:55:00
6:15 PM,82.8,50.0,32,29.82,10.0,South,12.7,20.7,N/A,,Clear,190,2013-09-21 23:15:00
6:35 PM,81.7,50.7,34,29.82,10.0,South,10.4,-,N/A,,Clear,190,2013-09-21 23:35:00
6:55 PM,80.6,51.8,37,29.81,10.0,South,10.4,-,N/A,,Clear,180,2013-09-21 23:55:00
7:15 PM,78.6,51.8,39,29.81,10.0,South,10.4,-,N/A,,Clear,170,2013-09-22 00:15:00
7:35 PM,75.6,52.2,44,29.81,10.0,SSE,8.1,-,N/A,,Clear,160,2013-09-22 00:35:00
7:55 PM,72.1,52.9,51,29.81,10.0,SSE,6.9,-,N/A,,Clear,150,2013-09-22 00:55:00
8:15 PM,71.6,52.7,51,29.81,10.0,SE,8.1,-,N/A,,Clear,140,2013-09-22 01:15:00
8:35 PM,71.8,52.7,51,29.81,10.0,SE,8.1,-,N/A,,Clear,140,2013-09-22 01:35:00
8:55 PM,70.0,52.7,54,29.82,10.0,SE,6.9,-,N/A,,Clear,130,2013-09-22 01:55:00
9:15 PM,68.4,52.9,58,29.82,10.0,ESE,4.6,-,N/A,,Clear,110,2013-09-22 02:15:00
9:35 PM,64.2,53.6,68,29.82,10.0,East,5.8,-,N/A,,Clear,90,2013-09-22 02:35:00
9:55 PM,65.1,52.9,65,29.82,10.0,ESE,6.9,-,N/A,,Clear,120,2013-09-22 02:55:00
10:15 PM,64.9,52.9,65,29.82,10.0,SSE,6.9,-,N/A,,Clear,150,2013-09-22 03:15:00
10:35 PM,68.5,51.1,54,29.82,10.0,South,11.5,-,N/A,,Clear,170,2013-09-22 03:35:00
10:55 PM,68.0,50.4,53,29.82,10.0,South,13.8,-,N/A,,Clear,180,2013-09-22 03:55:00
11:15 PM,67.5,49.5,52,29.82,10.0,South,16.1,-,N/A,,Clear,180,2013-09-22 04:15:00
11:35 PM,68.4,48.7,49,29.82,10.0,South,17.3,-,N/A,,Clear,180,2013-09-22 04:35:00
11:55 PM,67.8,48.6,50,29.82,10.0,South,12.7,-,N/A,,Clear,180,2013-09-22 04:55:00